[[{"header":{"parameterUnit":"m.s-1","parameterCategory":1,"la1":30.2991,"la2":30.254,"lo1":-89.0895,"lo2":-89.0444,"dy":0.0017,"dx":0.0017,"nx":28,"ny":28,"refTime":"2025-07-30T21:00:00:Z","depth":0,"parameterNumber":2,"parameterNumberName":"U-component_of_WINDS"},"data":[0,0,0,0,0,0,0,0,0,0,0,0,0,0,0,0,0,0,0,0,0,0,0,0,0,0,0,0,0,0,0,0,0,0,0,0,0,0,0,0,0,0,0,0,0,0,0,0,0,0,0,0,0,0,0,0,0,0,1.1028,1.103,0,1.119,1.1192,1.1194,1.1271,1.1271,1.1271,1.1271,1.1442,1.1446,1.1451,0,0,0,0,0,0,0,0,0,0,0,0,0,1.0791,1.0795,1.1028,1.103,1.1032,1.119,1.1192,1.1194,1.1271,1.1271,1.1271,1.1271,1.144,1.1446,1.1451,0,0,0,0,0,0,0,0,0,0,0,0,0,1.0917,1.0796,1.1027,1.1089,1.1096,1.1189,1.1192,1.1195,1.1271,1.1271,1.1271,1.1271,1.1438,1.1445,1.1452,1.1497,0,0,1.1473,1.1476,0,0,0,0,0,0,0,0,1.091,1.0926,1.1078,1.1085,1.1093,1.121,1.1171,1.1296,1.1271,1.1205,1.1271,1.1271,1.1365,1.1378,1.1409,1.1505,1.1513,1.1474,1.1478,1.1481,1.1483,0,0,0,0,0,0,0,1.0901,1.092,1.1092,1.108,1.1089,1.1111,1.1128,1.1195,1.1284,1.1211,1.1216,1.1234,1.1369,1.1402,1.1413,1.1515,1.1474,1.148,1.1484,1.1487,1.166,1.166,0,0,0,0,0,0,1.0882,1.0912,1.1087,1.1097,1.0999,1.1115,1.1135,1.1173,1.1283,1.13,1.1234,1.1237,1.139,1.1405,1.142,1.1481,1.1481,1.1487,1.1491,1.1659,1.166,1.166,0,0,0,0,0,0,1.0876,1.0897,1.108,1.1006,1.1031,1.1119,1.1161,1.1176,1.1209,1.1301,1.1318,1.1251,1.1391,1.141,1.1478,1.1488,1.1491,1.1497,1.1659,1.166,1.166,1.1604,0,0,0,0,0,0,1.0869,1.0894,1.091,1.1006,1.1035,1.1133,1.1162,1.1179,1.122,1.1225,1.1321,1.1337,1.1392,1.1467,1.1484,1.1498,1.1502,1.1658,1.1659,1.166,1.1605,1.1602,1.16,0,0,0,0,0,1.086,1.0889,1.0911,1.0932,1.1057,1.1134,1.115,1.1211,1.122,1.1239,1.1299,1.1334,1.1484,1.1473,1.1494,1.1509,1.1658,1.1659,1.166,1.1606,1.1603,1.16,0,0,0,0,0,0,1.0793,1.0902,1.0928,1.0988,1.1051,1.1146,1.1171,1.1206,1.1269,1.1272,1.1347,1.1368,1.1429,1.1476,1.1462,1.156,1.1575,1.158,1.1527,1.1525,1.1522,1.1509,1.1508,0,0,0,0,0,1.0785,1.0837,1.093,1.0974,1.1004,1.1082,1.1118,1.116,1.1229,1.1256,1.1321,1.1388,1.1451,1.149,1.1553,1.1613,1.1636,1.1634,1.1631,1.1629,1.1632,1.1669,1.167,1.1664,1.1664,1.1664,0,0,1.077,1.0836,1.0864,1.0962,1.1016,1.107,1.1104,1.1159,1.12,1.1265,1.1333,1.1383,1.1463,1.1527,1.1559,1.1568,1.164,1.163,1.1627,1.1633,1.167,1.1671,1.1671,1.1664,1.1664,1.1664,0,0,1.0768,1.0823,1.0866,1.0919,1.1,1.1052,1.1062,1.1154,1.1189,1.1258,1.1308,1.136,1.1465,1.1521,1.1563,1.1585,1.1621,1.1604,1.1591,1.1626,1.1626,1.1627,1.1636,1.1639,1.1607,1.1607,1.1607,0,1.0739,1.082,1.0884,1.0936,1.0979,1.104,1.1085,1.1135,1.1232,1.1261,1.1271,1.1406,1.1464,1.1543,1.1548,1.158,1.1596,1.1593,1.1621,1.1622,1.1624,1.1634,1.1637,1.1605,1.1605,1.1605,1.1605,0,1.078,1.0836,1.0862,1.0953,1.0999,1.1048,1.1121,1.1161,1.1199,1.1251,1.1322,1.1394,1.1473,1.1495,1.1534,1.158,1.1584,1.1606,1.1622,1.1621,1.1631,1.1635,1.1601,1.1602,1.1602,1.1603,0,0,1.0739,1.0867,1.0875,1.0919,1.1013,1.1059,1.1112,1.1188,1.1221,1.1287,1.1334,1.1423,1.1445,1.1493,1.1539,1.1569,1.1584,1.1589,1.1592,1.1586,1.1642,1.1624,1.1627,1.1609,1.161,1.161,1.1635,0,1.0751,1.0846,1.0907,1.0979,1.1033,1.1092,1.1139,1.1203,1.1254,1.1308,1.1365,1.1427,1.1451,1.148,1.1513,1.1575,1.1596,1.1574,1.1655,1.1657,1.1633,1.1633,1.1614,1.1634,1.164,1.164,1.1641,0,1.0777,1.0841,1.0918,1.1009,1.1034,1.1074,1.115,1.1201,1.1276,1.1311,1.1365,1.1411,1.1472,1.1484,1.157,1.1553,1.159,1.1626,1.1628,1.1638,1.1648,1.1643,1.1641,1.1644,1.1648,1.1647,1.1647,0,1.074,1.0846,1.0906,1.0941,1.1048,1.1075,1.1122,1.1197,1.124,1.1307,1.1336,1.141,1.145,1.1507,1.1573,1.1575,1.1653,1.167,1.1686,1.1684,1.1699,1.1697,1.1703,1.1722,1.1722,1.1722,1.1722,0,1.0747,1.0792,1.0891,1.0927,1.0981,1.1051,1.1103,1.1154,1.1221,1.1271,1.1328,1.1374,1.1458,1.1515,1.1568,1.1632,1.165,1.1681,1.1695,1.1676,1.1672,1.1701,1.1702,1.1723,1.1723,1.1723,1.1723,0,1.0714,1.0782,1.0851,1.0948,1.0973,1.1008,1.1091,1.1131,1.1185,1.1248,1.1266,1.1352,1.1423,1.1494,1.159,1.1625,1.1688,1.1707,1.1662,1.1669,1.1681,1.1679,1.1707,1.1715,1.1727,1.1727,1.1727,0,1.0713,1.0749,1.085,1.0886,1.0931,1.0989,1.1033,1.1106,1.1149,1.1239,1.1268,1.1343,1.1406,1.1516,1.1588,1.1662,1.1683,1.1688,1.1694,1.1675,1.1684,1.1681,1.1685,1.1685,1.1684,1.1684,1.1683,0,1.0705,1.0738,1.0798,1.0871,1.0921,1.0982,1.1046,1.1073,1.1158,1.1205,1.1277,1.1326,1.1424,1.1497,1.158,1.1631,1.1672,1.1681,1.1689,1.167,1.1643,1.1658,1.1655,1.168,1.168,1.168,1.1681,1.1681,1.0689,1.0725,1.0801,1.0867,1.0922,1.0981,1.1023,1.1083,1.1143,1.1227,1.1267,1.134,1.1418,1.1533,1.1583,1.1642,1.1653,1.1664,1.1667,1.1669,1.1664,1.1633,1.1658,1.1658,1.1658,1.1658,1.1658,0,1.0685,1.0737,1.0797,1.0884,1.0937,1.097,1.1043,1.1085,1.1148,1.1216,1.1277,1.1361,1.1434,1.1512,1.159,1.1623,1.1644,1.1641,1.1639,1.165,1.1649,1.1635,1.1622,1.1622,1.1622,1.1622,1.1622,1.1622,1.0688,1.075,1.0792,1.0883,1.0937,1.1007,1.1046,1.1101,1.1156,1.1247,1.1307,1.1357,1.1431,1.1515,1.1584,1.1605,1.1632,1.1623,1.165,1.1648,1.165,1.1653,1.164,1.1628,1.1628,1.1646,1.1646,1.1646]},{"header":{"parameterUnit":"m.s-1","parameterCategory":1,"la1":30.2991,"la2":30.254,"lo1":-89.0895,"lo2":-89.0444,"dy":0.0017,"dx":0.0017,"nx":28,"ny":28,"refTime":"2025-07-30T21:00:00:Z","depth":0,"parameterNumber":3,"parameterNumberName":"V-component_of_WINDS"},"data":[0,0,0,0,0,0,0,0,0,0,0,0,0,0,0,0,0,0,0,0,0,0,0,0,0,0,0,0,0,0,0,0,0,0,0,0,0,0,0,0,0,0,0,0,0,0,0,0,0,0,0,0,0,0,0,0,0,0,5.1419,5.142,0,5.1484,5.1485,5.1485,5.1495,5.1495,5.1494,5.1494,5.1552,5.1554,5.1556,0,0,0,0,0,0,0,0,0,0,0,0,0,5.1296,5.1299,5.1419,5.142,5.1421,5.1484,5.1485,5.1486,5.1495,5.1495,5.1494,5.1493,5.1551,5.1554,5.1556,0,0,0,0,0,0,0,0,0,0,0,0,0,5.1354,5.1299,5.1419,5.1433,5.1435,5.1484,5.1485,5.1486,5.1495,5.1495,5.1494,5.1493,5.1551,5.1554,5.1557,5.1593,0,0,5.1566,5.1568,0,0,0,0,0,0,0,0,5.1351,5.1358,5.143,5.1432,5.1435,5.1481,5.1463,5.1521,5.1496,5.1472,5.1493,5.1493,5.1529,5.1533,5.1547,5.1596,5.1598,5.1567,5.1568,5.157,5.1571,0,0,0,0,0,0,0,5.1347,5.1356,5.1444,5.1431,5.1434,5.1434,5.1441,5.1474,5.1504,5.1474,5.1475,5.1483,5.1529,5.1544,5.1549,5.1599,5.1566,5.1569,5.1571,5.1572,5.1682,5.1683,0,0,0,0,0,0,5.1341,5.1352,5.1442,5.1446,5.139,5.1437,5.1445,5.1467,5.1504,5.1509,5.1484,5.1483,5.1539,5.1545,5.1551,5.1597,5.157,5.1573,5.1575,5.1681,5.1682,5.1683,0,0,0,0,0,0,5.1339,5.1349,5.144,5.14,5.1411,5.144,5.1464,5.1468,5.1483,5.1511,5.1516,5.1494,5.1539,5.1546,5.1583,5.1599,5.1574,5.1577,5.1679,5.1681,5.1682,5.1688,0,0,0,0,0,0,5.1335,5.1348,5.1364,5.14,5.1414,5.1473,5.1465,5.147,5.149,5.149,5.1522,5.1526,5.1539,5.1579,5.1586,5.1603,5.1579,5.1678,5.168,5.1682,5.1687,5.169,5.1693,0,0,0,0,0,5.1331,5.136,5.1364,5.1375,5.1434,5.1474,5.1481,5.1498,5.1491,5.1506,5.1524,5.1525,5.1596,5.1582,5.1591,5.1609,5.1677,5.168,5.1682,5.1686,5.1689,5.1693,0,0,0,0,0,0,5.1321,5.1365,5.137,5.1413,5.144,5.1476,5.1495,5.1501,5.1528,5.1526,5.1543,5.155,5.1586,5.1601,5.1585,5.1646,5.1636,5.164,5.1636,5.1639,5.1642,5.1638,5.1582,0,0,0,0,0,5.1325,5.1357,5.1392,5.1427,5.144,5.1466,5.1483,5.1494,5.1521,5.1532,5.1553,5.1577,5.1605,5.1623,5.165,5.1689,5.1696,5.1705,5.1708,5.171,5.1714,5.1737,5.1742,5.1691,5.1691,5.1691,0,0,5.1331,5.1359,5.1378,5.1426,5.1448,5.1478,5.1475,5.1506,5.1529,5.1536,5.1573,5.1589,5.1617,5.1656,5.1674,5.167,5.173,5.1713,5.1715,5.1717,5.174,5.1744,5.1749,5.1692,5.1692,5.1692,0,0,5.1359,5.1384,5.1416,5.144,5.1475,5.1492,5.1499,5.1535,5.1547,5.1585,5.1592,5.1617,5.1664,5.1685,5.1701,5.174,5.1742,5.1748,5.1762,5.1784,5.1788,5.1792,5.1806,5.1811,5.1751,5.1751,5.1751,0,5.1362,5.1411,5.1431,5.1465,5.1485,5.1497,5.1529,5.1549,5.159,5.1603,5.1598,5.166,5.1679,5.1723,5.1733,5.1746,5.1755,5.1744,5.1787,5.1791,5.1794,5.1808,5.1813,5.1752,5.1751,5.1751,5.1751,0,5.1414,5.1447,5.1469,5.1512,5.1535,5.1567,5.1591,5.1611,5.162,5.1637,5.1676,5.17,5.1733,5.1744,5.1752,5.179,5.1787,5.1784,5.1774,5.1799,5.1813,5.1818,5.1752,5.1752,5.1752,5.1752,0,0,5.1436,5.1493,5.15,5.1521,5.1561,5.1586,5.1619,5.1654,5.1672,5.17,5.1727,5.1768,5.1767,5.1785,5.1795,5.1815,5.1845,5.181,5.1811,5.1816,5.1889,5.1892,5.1898,5.1847,5.1848,5.1848,5.1887,0,5.1469,5.1531,5.1551,5.1602,5.1633,5.1645,5.1673,5.17,5.1717,5.1745,5.1762,5.1792,5.1787,5.1799,5.1819,5.1837,5.186,5.1834,5.1871,5.1872,5.1864,5.1904,5.1907,5.1942,5.1892,5.1893,5.1894,0,5.1516,5.1549,5.1604,5.1643,5.1657,5.1682,5.1717,5.1744,5.1774,5.1785,5.1808,5.1817,5.1849,5.1838,5.1883,5.1865,5.1881,5.1892,5.1894,5.1898,5.1885,5.191,5.1954,5.1959,5.1902,5.1902,5.1901,0,5.1528,5.1586,5.1627,5.1644,5.169,5.1708,5.1727,5.1757,5.1778,5.1807,5.1821,5.1852,5.187,5.1893,5.191,5.19,5.1954,5.1943,5.1963,5.1963,5.1974,5.1973,5.2022,5.1983,5.1983,5.1983,5.1983,0,5.1563,5.1597,5.1634,5.1659,5.1696,5.1718,5.1754,5.1773,5.18,5.1828,5.1839,5.1864,5.1885,5.1912,5.1925,5.1961,5.1968,5.1977,5.198,5.1977,5.1976,5.1987,5.1986,5.1985,5.1984,5.1984,5.1984,0,5.1583,5.1609,5.1655,5.1696,5.1707,5.1733,5.1767,5.1791,5.1809,5.1845,5.1854,5.1881,5.1915,5.1934,5.1975,5.1984,5.2024,5.2025,5.2015,5.2016,5.2036,5.2034,5.2094,5.2103,5.2058,5.2058,5.2058,0,5.1604,5.1631,5.1676,5.1698,5.1719,5.1752,5.1775,5.1797,5.1819,5.1858,5.1877,5.1912,5.1941,5.1993,5.2015,5.2046,5.2049,5.2068,5.2054,5.205,5.2051,5.2049,5.2052,5.207,5.2071,5.2071,5.2071,0,5.1639,5.1652,5.1686,5.1725,5.1753,5.1783,5.1813,5.1829,5.1856,5.1881,5.1917,5.194,5.1984,5.2018,5.2052,5.2069,5.2075,5.2076,5.2082,5.2079,5.2073,5.2078,5.2022,5.2074,5.2074,5.2074,5.2074,5.2073,5.1661,5.1686,5.1723,5.1761,5.1787,5.1816,5.1842,5.1865,5.1896,5.1936,5.1947,5.1985,5.2015,5.2062,5.208,5.2109,5.2106,5.2114,5.2117,5.2119,5.2121,5.2068,5.2115,5.2115,5.2115,5.2115,5.2115,0,5.1698,5.1723,5.1758,5.1802,5.1832,5.1838,5.1872,5.1896,5.193,5.196,5.199,5.2032,5.2065,5.2091,5.2126,5.2144,5.2147,5.2152,5.2151,5.2155,5.2121,5.2113,5.2149,5.2149,5.2149,5.2149,5.2149,5.2149,5.172,5.1764,5.1781,5.1838,5.1862,5.1902,5.1922,5.1948,5.1972,5.202,5.2049,5.2067,5.2095,5.2132,5.2163,5.2169,5.2182,5.2186,5.2193,5.2161,5.2157,5.2154,5.2146,5.2189,5.2189,5.2225,5.2226,5.2226]}]]